Flight Track Log - Related Links

Times and Time Zones

All times are in EST time to prevent confusion due to time zone crossing. See the UPS1337 flight status page for this flight to view local times or setup timezone preferences in your user account.

Time Position Orientation Groundspeed Altitude Reporting Facility
EST Latitude Longitude Course Direction KTS MPH feet Rate Location/Type
Wed 21:44:21 27.9000 -82.6833 180° South 167 192 600  Level Tampa TRACON
Wed 21:45:27 27.8333 -82.6833 180° South 244 281 3,000 3,190 Climbing Tampa TRACON
Wed 21:46:27 27.8167 -82.7667 257° West 282 325 7,300 2,792 Climbing Tampa TRACON
Wed 21:53:52 28.6387 -82.9025 257° West 460 529 26,500 2,496 Climbing FlightAware ADS-B
Wed 21:54:35 28.7217 -82.9164 257° West 453 521 27,600 2,097 Climbing Jacksonville Center
Wed 21:55:35 28.8469 -82.9353 352° North 453 521 30,100 2,200 Climbing Jacksonville Center
Wed 21:56:35 28.9681 -82.9542 352° North 448 516 32,000 950 Climbing Jacksonville Center
Wed 21:57:35 29.0911 -82.9711 353° North 443 510 32,000  Level Jacksonville Center
Wed 21:58:35 29.2122 -82.9900 352° North 443 510 32,000  Level Jacksonville Center
Wed 21:59:35 29.3333 -83.0094 352° North 443 510 32,000 -50 Level Jacksonville Center
Wed 22:00:35 29.4544 -83.0261 353° North 443 510 31,900 -50 Descending Jacksonville Center
Wed 22:01:35 29.5775 -83.0503 350° North 448 516 31,900 50 Level Jacksonville Center
Wed 22:02:35 29.6964 -83.0814 347° North 442 509 32,000 50 Climbing Jacksonville Center
Wed 22:03:35 29.8111 -83.1200 344° North 436 502 32,000  Level Jacksonville Center
Wed 22:09:34 30.5152 -83.3533 344° North 436 502 32,000  Level FlightAware ADS-B
Wed 22:14:00 31.0243 -83.5252 344° North 439 505 32,000  Level FlightAware ADS-B (KONZ)
Wed 22:14:54 31.1339 -83.5623 344° North 438 504 32,000  Level FlightAware ADS-B (KONZ)
Wed 22:15:24 31.1955 -83.5834 344° North 439 505 32,000  Level FlightAware ADS-B (KONZ)
Wed 22:16:02 31.2696 -83.6088 344° North 439 505 32,000  Level FlightAware ADS-B (KONZ)
Wed 22:16:35 31.3244 -83.6306 344° North 435 501 32,000  Level Atlanta Center
Wed 22:17:35 31.4414 -83.6689 344° North 435 501 32,000  Level Atlanta Center
Wed 22:18:35 31.5542 -83.7075 344° North 435 501 32,000  Level Atlanta Center
Wed 22:19:35 31.6628 -83.7364 347° North 435 501 32,000  Level Atlanta Center
Wed 22:20:35 31.7839 -83.7578 351° North 435 501 32,000  Level Atlanta Center
Wed 22:21:35 31.9133 -83.7844 350° North 443 510 32,000  Level Atlanta Center
Wed 22:22:35 32.0344 -83.8086 350° North 448 516 32,000  Level Atlanta Center
Wed 22:23:35 32.1556 -83.8303 351° North 448 516 32,000  Level Atlanta Center
Wed 22:24:35 32.2892 -83.8569 350° North 448 516 32,000  Level Atlanta Center
Wed 22:25:35 32.4103 -83.8814 350° North 448 516 32,000  Level Atlanta Center
Wed 22:26:35 32.5333 -83.9033 351° North 448 516 32,000  Level Atlanta Center
Wed 22:27:35 32.6567 -83.9278 351° North 448 516 32,000  Level Atlanta Center
Wed 22:28:35 32.7797 -83.9525 350° North 448 516 32,000  Level Atlanta Center
Wed 22:29:35 32.9050 -83.9794 350° North 448 516 32,000  Level Atlanta Center
Wed 22:30:35 33.0281 -84.0017 351° North 448 516 32,000  Level Atlanta Center
Wed 22:31:35 33.1408 -84.0239 351° North 448 516 32,000  Level Atlanta Center
Wed 22:32:35 33.2744 -84.0511 350° North 448 516 32,000  Level Atlanta Center
Wed 22:33:35 33.3956 -84.0736 351° North 448 516 32,000  Level Atlanta Center
Wed 22:34:35 33.5186 -84.0986 350° North 443 510 32,000  Level Atlanta Center
Wed 22:39:58 34.1886 -84.2278 350° North 440 506 32,000  Level FlightAware ADS-B (KDZJ)
Wed 22:40:37 34.2699 -84.2442 351° North 441 507 32,000  Level FlightAware ADS-B (KDZJ)
Wed 22:41:18 34.3536 -84.2611 351° North 443 510 32,000  Level FlightAware ADS-B (KDZJ)
Wed 22:41:57 34.4351 -84.2774 351° North 443 510 32,000  Level FlightAware ADS-B (KDZJ)
Wed 22:42:38 34.5183 -84.2942 351° North 442 509 32,000  Level FlightAware ADS-B (KDZJ)
Wed 22:43:17 34.6000 -84.3107 351° North 442 509 32,000  Level FlightAware ADS-B (KDZJ)
Wed 22:43:58 34.6787 -84.3267 351° North 441 507 32,000  Level FlightAware ADS-B (KDZJ)
Wed 22:44:38 34.7628 -84.3437 351° North 441 507 32,000  Level FlightAware ADS-B (KDZJ)
Wed 22:45:17 34.8437 -84.3602 351° North 440 506 32,000  Level FlightAware ADS-B (KDZJ)
Wed 22:45:58 34.9251 -84.3768 351° North 440 506 32,000  Level FlightAware ADS-B (KDZJ)
Wed 22:46:37 34.9988 -84.3919 350° North 441 507 32,000  Level FlightAware ADS-B (KDZJ)
Wed 22:47:18 35.0922 -84.4110 350° North 442 509 32,000  Level FlightAware ADS-B (KDZJ)
Wed 22:47:57 35.1739 -84.4276 351° North 443 510 32,000  Level FlightAware ADS-B (KDZJ)
Wed 22:48:38 35.2574 -84.4448 350° North 443 510 32,000  Level FlightAware ADS-B (KDZJ)
Wed 22:49:17 35.3383 -84.4613 351° North 444 511 32,000  Level FlightAware ADS-B (KDZJ)
Wed 22:49:58 35.4186 -84.4780 350° North 445 512 32,000  Level FlightAware ADS-B (KDZJ)
Wed 22:51:30 35.6112 -84.5179 350° North 444 511 32,000 -242 Level FlightAware ADS-B (KMDQ)
Wed 22:52:27 35.7144 -84.5397 350° North 450 518 31,400 -275 Descending Indianapolis Center
Wed 22:58:47 36.5074 -84.7058 350° North 451 519 30,000 -196 Descending FlightAware ADS-B
Wed 22:59:35 36.6112 -84.7279 350° North 451 519 30,000 -1,412 Level FlightAware ADS-B
Wed 23:01:54 36.8334 -84.7752 350° North 450 518 25,600 -2,153 Descending FlightAware ADS-B
Wed 23:07:26 37.4849 -84.9154 350° North 343 395 13,100 -1,748 Descending FlightAware ADS-B
Wed 23:10:53 37.7494 -85.0832 333° Northwest 315 362 9,900 -725 Descending FlightAware ADS-B
Wed 23:11:51 37.8065 -85.1626 312° West 317 365 9,900  Level FlightAware ADS-B
Wed 23:12:53 37.8555 -85.2569 303° West 313 360 9,900  Level FlightAware ADS-B
Wed 23:13:54 37.8977 -85.3547 299° West 313 360 9,900  Level FlightAware ADS-B
Wed 23:14:53 37.9389 -85.4497 299° West 304 350 9,900 -555 Level FlightAware ADS-B
Wed 23:15:53 37.9771 -85.5363 299° West 278 320 8,800 -1,300 Descending FlightAware ADS-B
Wed 23:16:53 38.0139 -85.6190 300° West 270 311 7,300 -1,400 Descending FlightAware ADS-B
Wed 23:17:53 38.0524 -85.7015 301° West 261 300 6,000 -718 Descending FlightAware ADS-B
Wed 23:18:50 38.0883 -85.7759 302° West 270 311 5,900 -50 Descending FlightAware ADS-B
Wed 23:19:54 38.1604 -85.8251 332° Northwest 281 323 5,900 -873 Level FlightAware ADS-B
Wed 23:21:35 38.2787 -85.8745 342° North 277 319 3,500 -1,256 Descending FlightAware ADS-B
Wed 23:22:03 38.3186 -85.8862 347° North 266 306 3,200 -750 Descending FlightAware ADS-B
Wed 23:22:15 38.3307 -85.8812 18° North 249 287 3,000 -480 Descending FlightAware ADS-B
Wed 23:22:28 38.3419 -85.8690 41° Northeast 227 261 3,000 -250 Level FlightAware ADS-B
Wed 23:22:39 38.3464 -85.8555 67° East 211 243 2,900 -273 Descending FlightAware ADS-B
Wed 23:22:50 38.3456 -85.8421 94° East 194 223 2,900 122 Level FlightAware ADS-B
Wed 23:23:28 38.3333 -85.8000 94° East 179 206 3,000 81 Climbing Louisville TRACON
Wed 23:24:04 38.3147 -85.7886 154° Southeast 203 234 3,000 -495 Level Indianapolis Center
Wed 23:25:05 38.2664 -85.7756 168° South 183 211 2,200 -787 Descending Indianapolis Center

Login

Don't have an account? Register now (free) for customized features, flight alerts, and more!